Weather History for Bettles, AK

Change the Weather History Date:

Sunday, December 22, 2013

  Actual Average Record
Temperature  
Mean Temperature 5 °F -  
Max Temperature 9 °F 0 °F 27 °F (1970)
Min Temperature -2 °F -17 °F -55 °F (1979)
Degree Days  
Heating Degree Days 60    
Moisture  
Dew Point 3 °F    
Average Humidity 83    
Maximum Humidity 92    
Minimum Humidity 66    
Precipitation  
Precipitation 0.04 in - - ()
Snow  
Snow 0.00 in - - ()
Snow Depth 21.00 in    
Sea Level Pressure  
Sea Level Pressure 29.64 in    
Wind  
Wind Speed 4 mph (South)    
Max Wind Speed 13 mph    
Max Gust Speed 21 mph    
Visibility 5 miles    
Events Snow    
Averages and records for this station are not official NWS values.
T = Trace of Precipitation, MM = Missing Value Source: NWS Daily Summary

Daily Weather History Graph

Daily Weather History Graph

Search for Another Location

Airport:

Trip Planner

Search our weather history database for the weather conditions in past years. The results will help you decide how hot, cold, wet, or windy it might be!

Date:

Astronomy

Dec. 22, 2013 Rise Set
Actual Time 12:14 PM AKST 1:55 PM AKST
Civil Twilight 10:11 AM AKST 3:58 PM AKST
Nautical Twilight 8:49 AM AKST 5:21 PM AKST
Astronomical Twilight 7:41 AM AKST 6:28 PM AKST
Moon 10:34 PM AKST (12/22) 12:09 PM AKST (12/22)
Length of Visible Light 5h 47m
Length of Day
1h 40m
Waning Gibbous, 75% of the Moon is Illuminated
Dec 22
Waning Gibbous
Dec 25
Last Quarter
Jan 1
New
Jan 7
First Quarter
Jan 15
Full

Hourly Weather History & Observations

Time (AKST) Temp. Windchill Dew Point Humidity Pressure Visibility Wind Dir Wind Speed Gust Speed Precip Events Conditions
12:09 AM 8.6 °F 2.0 °F 3.2 °F 79% 29.58 in 10.0 mi NW 3.5 mph - N/A   Overcast
12:53 AM 9.0 °F - 5.0 °F 84% 29.65 in 7.0 mi Calm Calm - N/A Snow Light Snow
1:53 AM 9.0 °F 2.4 °F 5.0 °F 84% 29.64 in 6.0 mi NW 3.5 mph - N/A Snow Light Snow
2:53 AM 6.1 °F - 3.9 °F 91% 29.63 in 6.0 mi Calm Calm - N/A Snow Light Snow
3:53 AM 3.0 °F - -0.0 °F 87% 29.63 in 8.0 mi Calm Calm - N/A Snow Light Snow
4:53 AM 3.0 °F - -0.9 °F 84% 29.62 in 5.0 mi Calm Calm - N/A Snow Light Snow
5:53 AM 1.0 °F - -2.0 °F 87% 29.62 in 9.0 mi Calm Calm - N/A Snow Light Snow
6:53 AM 1.9 °F -5.6 °F -2.0 °F 83% 29.62 in 9.0 mi SSE 3.5 mph - N/A Snow Light Snow
7:53 AM 6.1 °F -2.8 °F 3.0 °F 87% 29.62 in 9.0 mi SSE 4.6 mph - N/A Snow Light Snow
8:31 AM 6.8 °F -2.0 °F 3.2 °F 85% 29.56 in 8.0 mi SE 4.6 mph - N/A Snow Light Snow
8:53 AM 7.0 °F -3.3 °F 3.9 °F 87% 29.62 in 10.0 mi SE 5.8 mph - N/A Snow Light Snow
9:53 AM 7.0 °F -3.3 °F 3.9 °F 87% 29.62 in 6.0 mi SSE 5.8 mph - N/A Snow Light Snow
10:12 AM 8.6 °F -1.3 °F 3.2 °F 79% 29.56 in 1.0 mi SSE 5.8 mph - N/A Snow Light Snow
10:35 AM 8.6 °F -1.3 °F 3.2 °F 79% 29.57 in 2.0 mi SSE 5.8 mph - N/A Snow Light Snow
10:53 AM 8.1 °F -0.5 °F 3.9 °F 83% 29.63 in 1.0 mi SSE 4.6 mph - N/A Snow Light Snow
11:22 AM 8.6 °F 0.1 °F 5.0 °F 85% 29.57 in 2.0 mi SE 4.6 mph - N/A Snow Light Snow
11:39 AM 8.6 °F 0.1 °F 5.0 °F 85% 29.58 in 6.0 mi SSE 4.6 mph - N/A Snow Light Snow
11:53 AM 8.1 °F -2.0 °F 5.0 °F 87% 29.65 in 4.0 mi SSE 5.8 mph - N/A Snow Light Snow
12:06 PM 8.6 °F -1.3 °F 5.0 °F 85% 29.59 in 2.0 mi SSE 5.8 mph - N/A Snow Light Snow
12:53 PM 8.1 °F -3.2 °F 5.0 °F 87% 29.65 in 2.0 mi SSE 6.9 mph - N/A Snow Light Snow
1:21 PM 8.6 °F -1.3 °F 5.0 °F 85% 29.59 in 1.5 mi SSE 5.8 mph - N/A Snow Light Snow
1:40 PM 8.6 °F -3.7 °F 5.0 °F 85% 29.59 in 3.0 mi SE 8.1 mph - N/A Snow Light Snow
1:53 PM 9.0 °F -0.9 °F 5.0 °F 84% 29.66 in 1.5 mi SSE 5.8 mph - N/A Snow Light Snow
2:10 PM 8.6 °F -1.3 °F 5.0 °F 85% 29.59 in 1.0 mi SSE 5.8 mph - N/A Snow Light Snow
2:33 PM 8.6 °F -2.6 °F 6.8 °F 92% 29.60 in 0.8 mi SE 6.9 mph - N/A Snow Light Snow
2:50 PM 8.6 °F -1.3 °F 6.8 °F 92% 29.60 in 1.5 mi SSE 5.8 mph - N/A Snow Light Snow
2:53 PM 9.0 °F -0.9 °F 6.1 °F 88% 29.66 in 1.5 mi SSE 5.8 mph - N/A Snow Light Snow
3:53 PM 9.0 °F -2.2 °F 6.1 °F 88% 29.67 in 1.5 mi SSW 6.9 mph - N/A Snow Light Snow
4:08 PM 8.6 °F 0.1 °F 5.0 °F 85% 29.61 in 3.0 mi South 4.6 mph - N/A Snow Light Snow
4:24 PM 8.6 °F -1.3 °F 5.0 °F 85% 29.61 in 1.5 mi SSW 5.8 mph - N/A Snow Light Snow
4:53 PM 9.0 °F -2.2 °F 5.0 °F 84% 29.68 in 1.0 mi SSW 6.9 mph - N/A Snow Light Snow
5:53 PM 8.1 °F -5.3 °F 3.9 °F 83% 29.69 in 1.0 mi SW 9.2 mph - N/A Snow Light Snow
6:11 PM 8.6 °F -4.7 °F 3.2 °F 79% 29.63 in 2.0 mi SW 9.2 mph - N/A Snow Light Snow
6:21 PM 8.6 °F -5.5 °F 3.2 °F 79% 29.63 in 3.0 mi SW 10.4 mph - N/A Snow Light Snow
6:25 PM 8.6 °F -5.5 °F 3.2 °F 79% 29.63 in 2.5 mi SW 10.4 mph - N/A Snow Light Snow
6:36 PM 6.8 °F -8.6 °F 1.4 °F 79% 29.64 in 3.0 mi SW 11.5 mph 18.4 mph N/A Snow Light Snow
6:53 PM 7.0 °F -7.5 °F 1.0 °F 77% 29.71 in 10.0 mi SW 10.4 mph 17.3 mph N/A   Overcast
7:53 PM 6.1 °F -10.2 °F -0.0 °F 76% 29.72 in 10.0 mi SW 12.7 mph 20.7 mph N/A   Overcast
8:53 PM 5.0 °F -10.0 °F -0.9 °F 76% 29.73 in 10.0 mi SW 10.4 mph 19.6 mph N/A   Overcast
9:53 PM 3.0 °F -11.5 °F -2.9 °F 76% 29.75 in 10.0 mi SSW 9.2 mph 17.3 mph N/A   Overcast
10:53 PM 1.0 °F -8.7 °F -4.0 °F 79% 29.77 in 10.0 mi South 4.6 mph - N/A   Overcast
11:53 PM -2.9 °F -15.0 °F -7.1 °F 82% 29.79 in 10.0 mi SSE 5.8 mph - N/A   Partly Cloudy